| time (UTC) | temp C | wind direction | speed KPH | gust KPH | rain 1hr cm | rain 24hr cm | rain mn cm | humidity % | barometer mb |
| 20260904031514 | 15 | 244 | 17.7 | 25.7 | 0.00 | 0.97 | 0.00 | 86 | 1005.3 |
| 20260904030515 | 15 | 259 | 19.3 | 29.0 | 0.00 | 0.97 | 0.00 | 87 | 1005.3 |
| 20260904023514 | 16 | 242 | 17.7 | 33.8 | 0.00 | 0.97 | 0.00 | 87 | 1005.4 |
| 20260904020514 | 16 | 282 | 17.7 | 27.4 | 0.00 | 0.97 | 0.00 | 87 | 1005.7 |
| 20260904013514 | 16 | 248 | 20.9 | 32.2 | 0.00 | 0.97 | 0.00 | 89 | 1005.8 |
| 20260904012514 | 16 | 256 | 14.5 | 29.0 | 0.00 | 0.97 | 0.00 | 89 | 1005.8 |
| 20260904011515 | 16 | 262 | 22.5 | 32.2 | 0.00 | 0.97 | 0.00 | 89 | 1005.8 |
| 20260904010514 | 15 | 257 | 14.5 | 27.4 | 0.00 | 0.97 | 0.00 | 90 | 1005.8 |
| 20260904002515 | 16 | 242 | 19.3 | 27.4 | 0.00 | 0.97 | 0.00 | 90 | 1006.2 |
| 20260904001516 | 16 | 253 | 14.5 | 25.7 | 0.00 | 0.97 | 0.00 | 90 | 1006.3 |
| 20260904000515 | 16 | 248 | 11.3 | 27.4 | 0.00 | 0.97 | 0.00 | 90 | 1006.1 |
| 20260903235514 | 16 | 228 | 16.1 | 27.4 | 0.00 | 0.97 | 0.00 | 89 | 1005.9 |
| 20260903233515 | 16 | 252 | 17.7 | 25.7 | 0.00 | 0.97 | 0.00 | 90 | 1006.3 |
| 20260903225515 | 16 | 249 | 19.3 | 32.2 | 0.00 | 0.97 | 0.00 | 90 | 1006.3 |
| 20260903224516 | 16 | 258 | 17.7 | 25.7 | 0.00 | 0.97 | 0.00 | 90 | 1006.5 |
| 20260903222515 | 16 | 240 | 16.1 | 25.7 | 0.03 | 0.97 | 0.00 | 90 | 1006.5 |
| 20260903221510 | 16 | 267 | 16.1 | 32.2 | 0.03 | 0.97 | 0.00 | 91 | 1006.4 |
| 20260903220515 | 16 | 264 | 17.7 | 32.2 | 0.03 | 0.97 | 0.00 | 90 | 1006.4 |
| 20260903215515 | 16 | 260 | 20.9 | 29.0 | 0.03 | 0.97 | 0.97 | 90 | 1006.4 |
| 20260903213514 | 16 | 252 | 14.5 | 32.2 | 0.03 | 0.97 | 0.97 | 89 | 1006.5 |
| 20260903211515 | 16 | 267 | 19.3 | 32.2 | 0.00 | 0.94 | 0.94 | 88 | 1006.4 |
| 20260903210514 | 16 | 262 | 22.5 | 33.8 | 0.00 | 0.94 | 0.94 | 88 | 1006.4 |
| 20260903205515 | 16 | 272 | 20.9 | 29.0 | 0.00 | 0.94 | 0.94 | 89 | 1006.3 |
| 20260903203514 | 16 | 267 | 20.9 | 27.4 | 0.00 | 0.94 | 0.94 | 89 | 1006.4 |
| 20260903200514 | 16 | 248 | 19.3 | 35.4 | 0.00 | 0.94 | 0.94 | 90 | 1006.3 |
| 20260903195514 | 17 | 277 | 20.9 | 29.0 | 0.00 | 0.94 | 0.94 | 90 | 1006.3 |
| 20260903194514 | 17 | 257 | 32.2 | 41.8 | 0.00 | 0.94 | 0.94 | 89 | 1006.3 |
| 20260903191515 | 17 | 256 | 20.9 | 33.8 | 0.00 | 0.94 | 0.94 | 89 | 1006.0 |
| 20260903190514 | 17 | 261 | 25.7 | 33.8 | 0.00 | 0.94 | 0.94 | 89 | 1006.0 |
| 20260903185514 | 17 | 258 | 19.3 | 38.6 | 0.00 | 0.94 | 0.94 | 89 | 1005.8 |
| 20260903183515 | 17 | 261 | 22.5 | 40.2 | 0.00 | 0.94 | 0.94 | 89 | 1005.9 |
| 20260903174515 | 18 | 326 | 17.7 | 29.0 | 0.00 | 0.94 | 0.94 | 91 | 1005.3 |
| 20260903173514 | 18 | 244 | 14.5 | 27.4 | 0.00 | 0.94 | 0.94 | 91 | 1005.3 |
| 20260903171515 | 18 | 255 | 12.9 | 25.7 | 0.00 | 0.94 | 0.94 | 89 | 1005.2 |
| 20260903164514 | 19 | 271 | 14.5 | 25.7 | 0.00 | 0.94 | 0.94 | 89 | 1004.8 |
| 20260903161515 | 20 | 250 | 11.3 | 27.4 | 0.00 | 0.94 | 0.94 | 88 | 1005.0 |
| 20260903160514 | 20 | 320 | 20.9 | 33.8 | 0.00 | 0.94 | 0.94 | 89 | 1005.1 |
| 20260903155514 | 20 | 242 | 12.9 | 25.7 | 0.00 | 0.94 | 0.94 | 92 | 1005.1 |
| 20260903153514 | 19 | 307 | 14.5 | 24.1 | 0.00 | 0.94 | 0.94 | 94 | 1005.3 |
| 20260903151515 | 18 | 260 | 16.1 | 25.7 | 0.03 | 0.94 | 0.94 | 95 | 1005.2 |
| 20260903150516 | 18 | 240 | 14.5 | 24.1 | 0.03 | 0.94 | 0.94 | 95 | 1005.3 |
| 20260903145514 | 18 | 226 | 14.5 | 25.7 | 0.03 | 0.94 | 0.94 | 96 | 1005.4 |
| 20260903142514 | 17 | 213 | 11.3 | 19.3 | 0.00 | 0.91 | 0.91 | 95 | 1005.6 |
| 20260903134514 | 17 | 192 | 11.3 | 20.9 | 0.00 | 0.91 | 0.91 | 95 | 1006.0 |
| 20260903132516 | 17 | 204 | 11.3 | 20.9 | 0.00 | 0.91 | 0.91 | 95 | 1006.3 |
| 20260903123515 | 17 | 217 | 9.7 | 20.9 | 0.00 | 1.17 | 0.91 | 95 | 1006.7 |
| 20260903122516 | 16 | 201 | 12.9 | 22.5 | 0.00 | 1.17 | 0.91 | 95 | 1006.8 |
| 20260903120515 | 16 | 210 | 14.5 | 20.9 | 0.03 | 1.17 | 0.91 | 95 | 1007.0 |
| 20260903114515 | 16 | 196 | 9.7 | 19.3 | 0.03 | 1.17 | 0.91 | 95 | 1007.2 |
| 20260903113515 | 16 | 182 | 8.0 | 19.3 | 0.03 | 1.17 | 0.91 | 95 | 1007.4 |
| 20260903110515 | 16 | 178 | 3.2 | 11.3 | 0.00 | 1.14 | 0.89 | 95 | 1007.8 |
| 20260903105514 | 16 | 166 | 3.2 | 11.3 | 0.03 | 1.14 | 0.89 | 95 | 1007.9 |
| 20260903104515 | 16 | 179 | 6.4 | 14.5 | 0.03 | 1.14 | 0.89 | 95 | 1008.0 |
| 20260903103514 | 16 | 160 | 3.2 | 9.7 | 0.03 | 1.14 | 0.89 | 95 | 1008.2 |
| 20260903102515 | 16 | 35 | 4.8 | 12.9 | 0.05 | 1.14 | 0.89 | 95 | 1008.3 |
| 20260903100515 | 16 | 173 | 4.8 | 16.1 | 0.08 | 1.14 | 0.89 | 95 | 1008.7 |
| 20260903095515 | 16 | 199 | 6.4 | 16.1 | 0.10 | 1.12 | 0.89 | 95 | 1009.0 |
| 20260903091515 | 15 | 200 | 11.3 | 16.1 | 0.13 | 1.09 | 0.86 | 95 | 1009.6 |
| 20260903090514 | 15 | 214 | 6.4 | 14.5 | 0.08 | 1.07 | 0.81 | 95 | 1009.7 |
| 20260903085515 | 15 | 230 | 8.0 | 14.5 | 0.05 | 1.02 | 0.79 | 95 | 1009.8 |
| 20260903084515 | 15 | 234 | 8.0 | 19.3 | 0.08 | 1.02 | 0.79 | 95 | 1009.9 |
| 20260903083515 | 16 | 221 | 11.3 | 24.1 | 0.08 | 1.02 | 0.79 | 95 | 1010.0 |
| 20260903073516 | 16 | 212 | 11.3 | 16.1 | 0.05 | 0.94 | 0.71 | 95 | 1010.4 |
| 20260903072514 | 16 | 284 | 9.7 | 20.9 | 0.03 | 0.91 | 0.69 | 95 | 1010.5 |
| 20260903070515 | 16 | 192 | 12.9 | 20.9 | 0.00 | 0.89 | 0.66 | 95 | 1010.6 |
| 20260903064515 | 16 | 199 | 11.3 | 19.3 | 0.00 | 0.89 | 0.66 | 95 | 1010.8 |
| 20260903055515 | 15 | 184 | 1.6 | 9.7 | 0.05 | 0.89 | 0.66 | 95 | 1011.2 |
| 20260903053515 | 15 | 69 | 0.0 | 1.6 | 0.23 | 0.89 | 0.66 | 94 | 1011.4 |
| 20260903050515 | 15 | 192 | 0.0 | 0.0 | 0.46 | 0.89 | 0.64 | 94 | 1011.6 |
| 20260903045515 | 15 | 191 | 0.0 | 1.6 | 0.51 | 0.84 | 0.61 | 93 | 1011.7 |
| 20260903041515 | 15 | 245 | 0.0 | 0.0 | 0.30 | 0.53 | 0.30 | 93 | 1012.1 |
| 20260903040515 | 15 | 245 | 0.0 | 4.8 | 0.18 | 0.43 | 0.18 | 93 | 1012.1 |
| 20260903034515 | 15 | 226 | 3.2 | 8.0 | 0.05 | 0.30 | 0.05 | 92 | 1012.4 |
| 20260903033515 | 15 | 225 | 3.2 | 8.0 | 0.03 | 0.25 | 0.03 | 92 | 1012.3 |